| time (UTC) | temp F | wind direction | speed knots | gust knots | rain 1hr in | rain 24hr in | rain mn in | humidity % | barometer mb |
| 20260504204625 | 53 | 121 | 4.3 | 14.8 | 0.00 | 0.00 | 0.00 | 34 | 1015.1 |
| 20260504203051 | 54 | 79 | 5.2 | 13.9 | 0.00 | 0.00 | 0.00 | 34 | 1015.1 |
| 20260504201546 | 56 | 27 | 6.1 | 17.4 | 0.00 | 0.00 | 0.00 | 33 | 1014.8 |
| 20260504200056 | 55 | 53 | 6.1 | 11.3 | 0.00 | 0.00 | 0.00 | 33 | 1014.5 |
| 20260504194549 | 56 | 119 | 6.1 | 14.8 | 0.00 | 0.00 | 0.00 | 32 | 1014.7 |
| 20260504193054 | 55 | 90 | 6.1 | 14.8 | 0.00 | 0.00 | 0.00 | 33 | 1014.8 |
| 20260504191552 | 55 | 126 | 7.8 | 14.8 | 0.00 | 0.00 | 0.00 | 34 | 1014.8 |
| 20260504190057 | 56 | 42 | 7.0 | 14.8 | 0.00 | 0.00 | 0.00 | 34 | 1015.0 |
| 20260504184600 | 56 | 92 | 7.8 | 17.4 | 0.00 | 0.00 | 0.00 | 33 | 1014.8 |
| 20260504183053 | 57 | 67 | 7.0 | 14.8 | 0.00 | 0.00 | 0.00 | 34 | 1014.7 |
| 20260504181555 | 55 | 46 | 6.1 | 12.2 | 0.00 | 0.00 | 0.00 | 36 | 1014.9 |
| 20260504180054 | 54 | 77 | 6.1 | 14.8 | 0.00 | 0.00 | 0.00 | 38 | 1014.8 |
| 20260504174550 | 55 | 98 | 6.1 | 13.9 | 0.00 | 0.00 | 0.00 | 38 | 1015.0 |
| 20260504173045 | 54 | 91 | 5.2 | 13.9 | 0.00 | 0.00 | 0.00 | 39 | 1015.0 |
| 20260504171548 | 53 | 86 | 6.1 | 13.9 | 0.00 | 0.00 | 0.00 | 42 | 1015.1 |
| 20260504081548 | 49 | 126 | 2.6 | 7.0 | 0.00 | 0.00 | 0.00 | 55 | 1014.8 |
| 20260504044546 | 57 | 122 | 4.3 | 11.3 | 0.00 | 0.00 | 0.00 | 39 | 1009.8 |
| 20260504043048 | 57 | 114 | 2.6 | 7.8 | 0.00 | 0.00 | 0.00 | 39 | 1009.2 |
| 20260504041549 | 58 | 119 | 1.7 | 7.0 | 0.00 | 0.00 | 0.00 | 38 | 1008.7 |
| 20260504040048 | 59 | 121 | 0.9 | 7.0 | 0.00 | 0.00 | 0.00 | 37 | 1008.4 |
| 20260504034541 | 60 | 126 | 1.7 | 8.7 | 0.00 | 0.00 | 0.00 | 36 | 1008.0 |
| 20260504033047 | 61 | 131 | 2.6 | 7.8 | 0.00 | 0.00 | 0.00 | 35 | 1007.9 |
| 20260504031545 | 61 | 101 | 1.7 | 7.8 | 0.00 | 0.00 | 0.00 | 35 | 1007.6 |
| 20260504030050 | 63 | 91 | 1.7 | 9.6 | 0.00 | 0.00 | 0.00 | 32 | 1007.3 |
| 20260504024545 | 65 | 105 | 0.0 | 2.6 | 0.00 | 0.00 | 0.00 | 29 | 1007.1 |
| 20260504023043 | 67 | 114 | 0.9 | 8.7 | 0.00 | 0.00 | 0.00 | 26 | 1007.0 |
| 20260504021547 | 69 | 0 | 0.9 | 3.5 | 0.00 | 0.00 | 0.00 | 22 | 1006.9 |
| 20260504020045 | 70 | 116 | 1.7 | 8.7 | 0.00 | 0.00 | 0.00 | 21 | 1007.0 |
| 20260504014559 | 71 | 101 | 3.5 | 8.7 | 0.00 | 0.00 | 0.00 | 20 | 1007.0 |
| 20260504013050 | 72 | 86 | 3.5 | 8.7 | 0.00 | 0.00 | 0.00 | 20 | 1007.0 |
| 20260504011543 | 73 | 105 | 3.5 | 9.6 | 0.00 | 0.00 | 0.00 | 21 | 1006.9 |
| 20260504010053 | 73 | 98 | 2.6 | 11.3 | 0.00 | 0.00 | 0.00 | 20 | 1007.1 |
| 20260504004548 | 74 | 97 | 3.5 | 10.4 | 0.00 | 0.00 | 0.00 | 20 | 1007.1 |
| 20260504003051 | 74 | 130 | 4.3 | 9.6 | 0.00 | 0.00 | 0.00 | 21 | 1007.3 |
| 20260504001545 | 75 | 100 | 4.3 | 11.3 | 0.00 | 0.00 | 0.00 | 19 | 1007.3 |
| 20260504000054 | 74 | 119 | 3.5 | 10.4 | 0.00 | 0.00 | 0.00 | 20 | 1007.3 |
| 20260503234550 | 74 | 59 | 3.5 | 9.6 | 0.00 | 0.00 | 0.00 | 20 | 1007.5 |
| 20260503233046 | 74 | 99 | 3.5 | 11.3 | 0.00 | 0.00 | 0.00 | 20 | 1007.6 |
| 20260503231551 | 75 | 115 | 2.6 | 9.6 | 0.00 | 0.00 | 0.00 | 19 | 1007.6 |
| 20260503230045 | 74 | 50 | 5.2 | 13.0 | 0.00 | 0.00 | 0.00 | 19 | 1007.6 |
| 20260503224542 | 75 | 98 | 4.3 | 10.4 | 0.00 | 0.00 | 0.00 | 20 | 1007.7 |
| 20260503223042 | 75 | 100 | 6.1 | 12.2 | 0.00 | 0.00 | 0.00 | 20 | 1007.9 |
| 20260503221546 | 75 | 61 | 3.5 | 11.3 | 0.00 | 0.00 | 0.00 | 20 | 1008.2 |
| 20260503220054 | 75 | 26 | 4.3 | 10.4 | 0.00 | 0.00 | 0.00 | 19 | 1008.4 |
| 20260503214543 | 74 | 52 | 5.2 | 11.3 | 0.00 | 0.00 | 0.00 | 20 | 1008.5 |
| 20260503213047 | 74 | 40 | 3.5 | 10.4 | 0.00 | 0.00 | 0.00 | 21 | 1008.6 |
| 20260503211553 | 75 | 78 | 4.3 | 10.4 | 0.00 | 0.00 | 0.00 | 20 | 1009.0 |